Weather History for Washington, GA

Change the Weather History Date:

Sunday, April 6, 2014

  Actual Average (KDBN) Record (KDBN)
Temperature  
Mean Temperature 56 °F -  
Max Temperature 59 °F 74 °F 94 °F (1978)
Min Temperature 53 °F 45 °F 30 °F (1944)
Degree Days  
Heating Degree Days 9    
Growing Degree Days 6 (Base 50)    
Moisture  
Dew Point 42 °F    
Average Humidity 61    
Maximum Humidity 88    
Minimum Humidity 44    
Precipitation  
Precipitation 0.00 in - - ()
Sea Level Pressure  
Sea Level Pressure 30.05 in    
Wind  
Wind Speed 3 mph (ENE)    
Max Wind Speed 9 mph    
Max Gust Speed -    
Visibility 10 miles    
Events Rain    
Averages and records for this station are not official NWS values.
T = Trace of Precipitation, MM = Missing Value Source: NWS Daily Summary

Daily Weather History Graph

Daily Weather History Graph

Search for Another Location

Airport:

Trip Planner

Search our weather history database for the weather conditions in past years. The results will help you decide how hot, cold, wet, or windy it might be!

Date:

Astronomy

Apr. 06, 2014 Rise Set
Actual Time 7:12 AM EDT 7:55 PM EDT
Civil Twilight 6:46 AM EDT 8:20 PM EDT
Nautical Twilight 6:17 AM EDT 8:50 PM EDT
Astronomical Twilight 5:46 AM EDT 9:21 PM EDT
Moon 12:20 PM EDT (4/6) 1:41 AM EDT (4/6)
Length of Visible Light 13h 34m
Length of Day
12h 43m
Waxing Crescent, 43% of the Moon is Illuminated
Apr 6
Waxing Crescent
Apr 7
First Quarter
Apr 15
Full
Apr 22
Last Quarter
Apr 29
New

Hourly Weather History & Observations

Time (EDT) Temp. Dew Point Humidity Pressure Visibility Wind Dir Wind Speed Gust Speed Precip Events Conditions
12:15 AM 53.6 °F 37.4 °F 54% 30.03 in 10.0 mi Calm Calm - N/A   Clear
12:35 AM 53.6 °F 37.4 °F 54% 30.03 in 10.0 mi Calm Calm - N/A   Clear
12:55 AM 53.6 °F 39.2 °F 58% 30.04 in 10.0 mi Calm Calm - N/A   Clear
1:15 AM 53.6 °F 37.4 °F 54% 30.03 in 10.0 mi Calm Calm - N/A   Clear
1:35 AM 53.6 °F 42.8 °F 67% 30.03 in 10.0 mi Calm Calm - N/A   Clear
1:55 AM 53.6 °F 41.0 °F 62% 30.03 in 10.0 mi Calm Calm - N/A   Clear
2:15 AM 53.6 °F 41.0 °F 62% 30.03 in 10.0 mi Calm Calm - N/A   Clear
2:35 AM 53.6 °F 41.0 °F 62% 30.02 in 10.0 mi Calm Calm - N/A   Clear
2:55 AM 53.6 °F 41.0 °F 62% 30.01 in 10.0 mi Calm Calm - N/A   Clear
3:15 AM 53.6 °F 41.0 °F 62% 30.01 in 10.0 mi Calm Calm - N/A   Clear
3:35 AM 53.6 °F 41.0 °F 62% 30.01 in 10.0 mi Calm Calm - N/A   Clear
3:55 AM 53.6 °F 42.8 °F 67% 30.01 in 10.0 mi Calm Calm - N/A   Clear
4:15 AM 53.6 °F 42.8 °F 67% 30.03 in 10.0 mi WNW 3.5 mph - N/A   Clear
4:35 AM 53.6 °F 41.0 °F 62% 30.03 in 10.0 mi NNW 4.6 mph - N/A   Clear
4:55 AM 55.4 °F 41.0 °F 58% 30.03 in 10.0 mi North 3.5 mph - N/A   Clear
5:15 AM 53.6 °F 41.0 °F 62% 30.03 in 10.0 mi NNE 3.5 mph - N/A   Clear
5:35 AM 53.6 °F 41.0 °F 62% 30.02 in 10.0 mi Calm Calm - N/A   Clear
5:55 AM 53.6 °F 41.0 °F 62% 30.03 in 10.0 mi North 6.9 mph - N/A   Clear
6:15 AM 53.6 °F 39.2 °F 58% 30.03 in 10.0 mi NNE 3.5 mph - N/A   Clear
6:35 AM 53.6 °F 41.0 °F 62% 30.03 in 10.0 mi ENE 4.6 mph - N/A   Clear
6:55 AM 53.6 °F 39.2 °F 58% 30.02 in 10.0 mi ENE 8.1 mph - N/A   Clear
7:15 AM 55.4 °F 39.2 °F 54% 30.03 in 10.0 mi ENE 8.1 mph - N/A   Clear
7:35 AM 55.4 °F 37.4 °F 51% 30.03 in 10.0 mi ENE 5.8 mph - N/A   Clear
7:55 AM 55.4 °F 37.4 °F 51% 30.05 in 10.0 mi NE 6.9 mph - N/A   Clear
8:15 AM 53.6 °F 37.4 °F 54% 30.07 in 10.0 mi NE 4.6 mph - N/A   Clear
8:35 AM 53.6 °F 37.4 °F 54% 30.07 in 10.0 mi NE 5.8 mph - N/A   Clear
8:55 AM 53.6 °F 37.4 °F 54% 30.08 in 10.0 mi NE 5.8 mph - N/A   Clear
9:15 AM 53.6 °F 37.4 °F 54% 30.08 in 10.0 mi NE 8.1 mph - N/A   Clear
9:35 AM 53.6 °F 35.6 °F 51% 30.09 in 10.0 mi NE 5.8 mph - N/A   Clear
9:55 AM 53.6 °F 35.6 °F 51% 30.11 in 10.0 mi Calm Calm - N/A   Clear
10:15 AM 55.4 °F 37.4 °F 51% 30.11 in 10.0 mi NNE 4.6 mph - N/A   Clear
10:35 AM 57.2 °F 35.6 °F 44% 30.11 in 10.0 mi ENE 5.8 mph - N/A   Clear
10:55 AM 57.2 °F 37.4 °F 48% 30.12 in 10.0 mi NE 5.8 mph - N/A   Clear
11:15 AM 57.2 °F 37.4 °F 48% 30.13 in 10.0 mi NE 3.5 mph - N/A   Clear
11:35 AM 57.2 °F 37.4 °F 48% 30.12 in 10.0 mi NE 4.6 mph - N/A   Clear
11:55 AM 57.2 °F 37.4 °F 48% 30.10 in 10.0 mi East 6.9 mph - N/A   Unknown
12:15 PM 57.2 °F 37.4 °F 48% 30.09 in 10.0 mi East 4.6 mph - N/A   Unknown
12:35 PM 57.2 °F 39.2 °F 51% 30.10 in 10.0 mi East 3.5 mph - N/A   Unknown
12:55 PM 57.2 °F 39.2 °F 51% 30.08 in 10.0 mi ESE 6.9 mph - N/A   Unknown
1:15 PM 59.0 °F 42.8 °F 55% 30.09 in 10.0 mi ENE 6.9 mph - N/A Rain Light Rain
1:35 PM 59.0 °F 42.8 °F 55% 30.09 in 10.0 mi NE 4.6 mph - N/A   Clear
1:55 PM 59.0 °F 42.8 °F 55% 30.09 in 10.0 mi ENE 3.5 mph - N/A   Clear
2:15 PM 59.0 °F 42.8 °F 55% 30.08 in 10.0 mi East 5.8 mph - N/A   Clear
2:35 PM 59.0 °F 42.8 °F 55% 30.07 in 10.0 mi East 4.6 mph - N/A   Clear
2:55 PM 59.0 °F 42.8 °F 55% 30.07 in 10.0 mi East 6.9 mph - N/A   Scattered Clouds
3:15 PM 59.0 °F 42.8 °F 55% 30.07 in 10.0 mi East 6.9 mph - N/A   Scattered Clouds
3:35 PM 59.0 °F 42.8 °F 55% 30.06 in 10.0 mi East 6.9 mph - N/A   Clear
3:55 PM 59.0 °F 42.8 °F 55% 30.06 in 10.0 mi East 9.2 mph - N/A   Clear
4:15 PM 59.0 °F 42.8 °F 55% 30.06 in 10.0 mi East 6.9 mph - N/A   Clear
4:35 PM 59.0 °F 44.6 °F 59% 30.05 in 10.0 mi East 5.8 mph - N/A   Scattered Clouds
4:55 PM 59.0 °F 44.6 °F 59% 30.05 in 10.0 mi ENE 5.8 mph - N/A   Mostly Cloudy
5:15 PM 59.0 °F 44.6 °F 59% 30.05 in 10.0 mi ENE 4.6 mph - N/A   Mostly Cloudy
5:35 PM 59.0 °F 46.4 °F 63% 30.02 in 10.0 mi East 6.9 mph - N/A   Mostly Cloudy
5:55 PM 59.0 °F 46.4 °F 63% 30.02 in 10.0 mi East 6.9 mph - N/A   Scattered Clouds
6:15 PM 59.0 °F 46.4 °F 63% 30.02 in 10.0 mi ENE 4.6 mph - N/A   Scattered Clouds
6:35 PM 59.0 °F 46.4 °F 63% 30.02 in 10.0 mi East 4.6 mph - N/A   Mostly Cloudy
6:55 PM 59.0 °F 46.4 °F 63% 30.02 in 10.0 mi East 5.8 mph - N/A   Scattered Clouds
7:15 PM 57.2 °F 46.4 °F 67% 30.02 in 10.0 mi East 3.5 mph - N/A   Mostly Cloudy
7:55 PM 55.4 °F 50.0 °F 82% 30.01 in 10.0 mi East 3.5 mph - N/A   Mostly Cloudy
8:15 PM 55.4 °F 50.0 °F 82% 30.02 in 10.0 mi Calm Calm - N/A   Mostly Cloudy
8:35 PM 53.6 °F 50.0 °F 88% 30.02 in 10.0 mi NNE 3.5 mph - N/A   Mostly Cloudy
8:55 PM 53.6 °F 50.0 °F 88% 30.02 in 10.0 mi NNE 3.5 mph - N/A   Mostly Cloudy
9:15 PM 53.6 °F 50.0 °F 88% 30.02 in 10.0 mi NE 3.5 mph - N/A   Mostly Cloudy
9:35 PM 53.6 °F 50.0 °F 88% 30.01 in 10.0 mi ENE 5.8 mph - N/A   Mostly Cloudy
9:55 PM 55.4 °F 48.2 °F 77% 30.01 in 10.0 mi ENE 4.6 mph - N/A   Overcast
10:15 PM 55.4 °F 48.2 °F 77% 30.02 in 10.0 mi NE 3.5 mph - N/A   Overcast
10:35 PM 55.4 °F 48.2 °F 77% 30.02 in 10.0 mi ENE 4.6 mph - N/A   Overcast
10:55 PM 55.4 °F 48.2 °F 77% 30.02 in 10.0 mi ENE 5.8 mph - N/A   Overcast
11:15 PM 55.4 °F 46.4 °F 72% 30.02 in 10.0 mi ENE 4.6 mph - N/A   Overcast
11:35 PM 55.4 °F 46.4 °F 72% 30.01 in 10.0 mi East 5.8 mph - N/A Rain Light Rain
11:55 PM 55.4 °F 46.4 °F 72% 29.99 in 10.0 mi East 8.1 mph - N/A   Mostly Cloudy